Regional Weather Roundup
Issued by NWS

Home | Current Version | Previous Version | Text Only | Print | Product List | Glossary On
Versions: 1 2 3 4 5 6 7 8 9 10 11 12 13 14 15 16 17 18 19 20 21 22 23 24 25 26 27 28 29 30 31 32 33 34 35 36 37 38 39 40 41 42 43 44 45 46 47 48 49 50
000
ASUS43 KTOP 230659
RWRKS

WEATHER ROUNDUP FOR KANSAS
NATIONAL WEATHER SERVICE GOODLAND KS
200 AM CDT MON APR 23 2018

NOTE:  "FAIR" INDICATES FEW OR NO CLOUDS BELOW 12,000 FEET WITH NO
SIGNIFICANT WEATHER AND/OR OBSTRUCTIONS TO VISIBILITY.

KSZ001>006-013>018-027>032-041>047-230800-
NORTHWEST KANSAS

CITY           SKY/WX    TMP DP  RH WIND       PRES   REMARKS
GOODLAND       CLEAR     34  31  88 CALM      30.18S
HAYS           CLOUDY    51  43  74 NW7       30.17S
HILL CITY      CLEAR     41  37  86 W5        30.19S
RUSSELL        CLOUDY    51  44  77 NW7       30.14S
$$

KSZ061>065-074>080-084>089-230800-
SOUTHWEST KANSAS

CITY           SKY/WX    TMP DP  RH WIND       PRES   REMARKS
DODGE CITY     CLEAR     40  35  83 NW6       30.16F
GARDEN CITY    CLEAR     41  35  79 E5        30.17F
GREAT BEND     CLOUDY    49  44  83 NW6       30.15F
LIBERAL        CLEAR     39  36  89 N3        30.18S
$$

KSZ066>073-081>083-090>101-230800-
SOUTHEAST KANSAS

CITY           SKY/WX    TMP DP  RH WIND       PRES   REMARKS
CHANUTE        CLOUDY    56  46  69 NE8       30.06S
COFFEYVILLE    CLOUDY    53  49  86 N9        30.04S
HUTCHINSON     CLOUDY    55  42  61 N7        30.12S
MEDICINE LODGE   N/A     53  44  71 N6        30.12F
WICHITA INTL   CLOUDY    53  46  77 NW8       30.10S
WICHITA JABRA  CLOUDY    52  46  80 NW6       30.10S
WICHITA MCCONL CLOUDY    54  44  70 N6        30.09F
WINFIELD       CLEAR     48  48 100 N6        30.09S
$$

KSZ007>012-019>026-033>040-048>060-102>105-230800-
NORTHEAST KANSAS

CITY           SKY/WX    TMP DP  RH WIND       PRES   REMARKS
CONCORDIA      CLEAR     48  40  73 NW5       30.14R
EMPORIA        CLOUDY    54  44  69 N6        30.09S
LAWRENCE       CLOUDY    57  38  48 NE8       30.09S
MANHATTAN      CLEAR     47  42  83 CALM      30.11F
OLATHE IND     CLOUDY    58  33  39 NE10      30.08F
OLATHE EXE     CLOUDY    57  33  40 NE9       30.07F
SALINA         CLEAR     47  40  76 NW7       30.13S
TOPEKA BILLARD MOCLDY    56  42  59 N3        30.10S
TOPEKA FORBES  CLOUDY    51  43  74 N6        30.10S
$$




USA.gov is the U.S. government's official web portal to all federal, state and local government web resources and services.